SCP
0 0 0 0 0 0 0 0 0 0 1 1 1 1 2 2 1 1 1 1 1 1
0 0 0 0 0 0 0 0 0 0 0 0 1 1 1 1 1 1 1 1 2 2
0 0 0 0 0 0 0 0 0 1 1 0 0 0 0 1 1 1 1 1 1 1
0 0 0 0 0 0 0 0 1 1 1 1 1 1 1 0 0 1 1 1 0 0
0 0 0 0 0 0 0 0 0 0 0 0 0 0 0 1 1 0 0 0 0 0
0 0 0 0 0 0 0 0 0 0 0 0 0 0 0 0 0 0 0 0 1 1
0 0 0 0 0 0 0 0 0 0 0 0 0 0 0 0 0 0 0 0 0 1
0 0 0 0 0 0 0 0 0 0 0 0 0 0 0 0 0 0 0 0 0 0
0 0 0 0 0 0 0 0 0 0 0 0 0 0 -0 -0 -0 -0 0 0 0 0
0 0 0 0 0 0 0 0 0 0 0 0 -0 -0 -0 -0 -0 -0 -0 -0 0 0
0 0 0 0 0 0 0 0 0 0 0 -0 -0 -0 -0 -0 -0 -0 -0 -0 0 0
0 0 0 0 0 0 0 0 0 0 -0 -0 -0 -0 -0 -0 -0 -0 -0 -0 0 0
0 0 0 0 0 0 0 0 0 -0 0 -0 -0 -0 -0 -0 -0 -0 -0 0 0 -0
0 0 0 0 0 0 0 0 0 0 -0 0 0 0 -0 -0 0 0 0 0 0 0
Wind_Speed_500mb
47 47 51 51 49 48 47 37 37 45 51 64 78 83 81 76 79 88 89 85 97 101
26 30 30 28 31 37 43 46 45 42 42 41 45 44 52 61 70 61 64 69 72 75
25 25 20 16 16 19 20 23 28 27 28 29 30 33 40 43 44 48 47 48 57 58
29 27 22 20 18 16 16 19 20 21 22 23 24 25 31 39 46 48 53 59 57 61
28 31 32 25 26 23 22 23 24 27 30 32 36 38 38 39 44 48 52 57 62 67
41 39 41 41 38 37 36 34 32 35 38 44 46 49 46 46 44 45 47 48 50 52
54 53 53 50 48 47 44 40 41 43 45 39 38 39 42 44 45 43 42 45 48 47
61 58 52 50 49 47 47 50 53 49 47 47 48 51 53 52 53 55 55 53 51 52
56 54 55 54 51 52 52 51 52 55 58 57 59 67 71 71 64 57 58 59 55 54
62 60 56 55 55 56 57 58 60 62 64 70 76 80 80 75 73 66 60 60 59 56
43 44 47 50 50 52 57 64 69 75 79 84 88 91 92 86 82 81 70 61 62 59
50 57 63 64 61 62 68 74 79 83 89 90 92 88 86 83 80 78 70 60 60 60
67 64 67 70 71 74 79 82 82 85 85 88 90 86 77 72 71 67 63 59 60 60
83 80 77 80 79 76 77 78 83 89 93 93 89 79 75 78 74 69 63 57 58 58
Wind_Direction_500mb
249 249 247 246 243 241 238 243 245 245 246 246 251 250 252 257 255 260 263 263 264 265
257 255 248 246 242 241 240 240 246 250 252 255 256 257 252 254 257 263 270 267 267 258
239 236 221 220 230 229 231 230 235 241 244 247 250 249 249 242 250 256 263 270 271 266
232 226 236 237 228 225 224 221 223 234 247 256 259 260 255 254 258 266 269 273 278 277
222 217 228 231 236 239 243 241 244 258 269 276 279 280 280 273 269 272 274 274 272 273
220 224 229 234 234 238 247 252 258 274 281 290 288 290 290 287 287 285 284 282 281 280
231 234 239 240 243 242 241 248 260 273 286 291 296 300 305 305 297 289 288 287 285 278
238 237 236 235 236 239 247 259 270 276 285 291 297 303 307 308 307 300 294 289 286 276
233 232 230 231 242 250 256 263 267 273 279 286 293 300 303 303 303 301 295 291 288 279
239 237 231 231 236 244 254 261 267 274 280 284 289 293 297 297 296 295 296 290 287 285
238 241 239 245 248 254 260 269 274 277 281 286 288 291 294 294 294 290 285 283 281 284
260 258 259 259 262 265 270 273 276 282 285 286 288 288 288 289 290 290 285 279 277 282
262 262 261 262 265 268 272 276 279 284 285 288 290 290 288 286 286 283 278 277 280 279
265 264 263 262 266 267 268 272 276 281 284 287 284 281 282 282 275 275 274 275 279 281
Wind_Speed_850mb
47 47 51 51 49 48 47 37 37 45 51 64 78 83 81 76 79 88 89 85 97 101
26 30 30 28 31 37 43 46 45 42 42 41 45 44 52 61 70 61 64 69 72 75
25 25 20 16 16 19 20 23 28 27 28 29 30 33 40 43 44 48 47 48 57 58
29 27 22 20 18 16 16 19 20 21 22 23 24 25 31 39 46 48 53 59 57 61
28 31 32 25 26 23 22 23 24 27 30 32 36 38 38 39 44 48 52 57 62 67
41 39 41 41 38 37 36 34 32 35 38 44 46 49 46 46 44 45 47 48 50 52
54 53 53 50 48 47 44 40 41 43 45 39 38 39 42 44 45 43 42 45 48 47
61 58 52 50 49 47 47 50 53 49 47 47 48 51 53 52 53 55 55 53 51 52
56 54 55 54 51 52 52 51 52 55 58 57 59 67 71 71 64 57 58 59 55 54
62 60 56 55 55 56 57 58 60 62 64 70 76 80 80 75 73 66 60 60 59 56
43 44 47 50 50 52 57 64 69 75 79 84 88 91 92 86 82 81 70 61 62 59
50 57 63 64 61 62 68 74 79 83 89 90 92 88 86 83 80 78 70 60 60 60
67 64 67 70 71 74 79 82 82 85 85 88 90 86 77 72 71 67 63 59 60 60
83 80 77 80 79 76 77 78 83 89 93 93 89 79 75 78 74 69 63 57 58 58
Wind_Direction_850mb
249 249 247 246 243 241 238 243 245 245 246 246 251 250 252 257 255 260 263 263 264 265
257 255 248 246 242 241 240 240 246 250 252 255 256 257 252 254 257 263 270 267 267 258
239 236 221 220 230 229 231 230 235 241 244 247 250 249 249 242 250 256 263 270 271 266
232 226 236 237 228 225 224 221 223 234 247 256 259 260 255 254 258 266 269 273 278 277
222 217 228 231 236 239 243 241 244 258 269 276 279 280 280 273 269 272 274 274 272 273
220 224 229 234 234 238 247 252 258 274 281 290 288 290 290 287 287 285 284 282 281 280
231 234 239 240 243 242 241 248 260 273 286 291 296 300 305 305 297 289 288 287 285 278
238 237 236 235 236 239 247 259 270 276 285 291 297 303 307 308 307 300 294 289 286 276
233 232 230 231 242 250 256 263 267 273 279 286 293 300 303 303 303 301 295 291 288 279
239 237 231 231 236 244 254 261 267 274 280 284 289 293 297 297 296 295 296 290 287 285
238 241 239 245 248 254 260 269 274 277 281 286 288 291 294 294 294 290 285 283 281 284
260 258 259 259 262 265 270 273 276 282 285 286 288 288 288 289 290 290 285 279 277 282
262 262 261 262 265 268 272 276 279 284 285 288 290 290 288 286 286 283 278 277 280 279
265 264 263 262 266 267 268 272 276 281 284 287 284 281 282 282 275 275 274 275 279 281